Location: Kikino
(54.4440°N, 112.0940°W)
Time: 04:45:07
(UTC+00:00)

Altair - All Passes

Search period start: 24 May 2024 00:00
Search period end: 03 June 2024 00:00
Orbit: 1502 x 1682 km, 47.2° (Epoch: 22 May)

Date Brightness Start Highest point End Pass type
(mag) Time Alt. Az. Time Alt. Az. Time Alt. Az.
24 May - 15:18:16 10° SSE 15:23:55 17° SE 15:29:39 10° E daylight
24 May - 17:17:33 10° SW 17:26:30 41° SSE 17:35:39 10° E daylight
24 May - 19:20:30 10° WSW 19:30:12 58° S 19:40:04 10° E daylight
24 May - 21:24:35 10° W 21:34:10 50° SSW 21:43:46 10° SE daylight
24 May - 23:29:24 10° W 23:37:22 27° SW 23:45:16 10° S daylight
25 May - 14:53:49 10° SSE 14:58:54 16° SE 15:04:04 10° E daylight
25 May - 16:52:33 10° SSW 17:01:22 39° SSE 17:10:24 10° E daylight
25 May - 18:55:21 10° WSW 19:05:01 57° S 19:14:51 10° E daylight
25 May - 20:59:22 10° W 21:08:59 52° SSW 21:18:39 10° SE daylight
25 May - 23:04:06 10° W 23:12:16 29° SW 23:20:24 10° SSE daylight
26 May - 14:29:29 10° SSE 14:33:54 14° SE 14:38:21 10° E daylight
26 May - 16:27:36 10° SSW 16:36:15 37° SSE 16:45:08 10° E daylight
26 May - 18:30:12 10° WSW 18:39:49 57° S 18:49:39 10° E daylight
26 May - 20:34:11 10° W 20:43:49 53° SSW 20:53:31 10° ESE daylight
26 May - 22:38:49 10° W 22:47:10 31° SW 22:55:31 10° SSE daylight
27 May - 14:05:21 10° SE 14:08:54 12° SE 14:12:28 10° ESE daylight
27 May - 16:02:38 10° SSW 16:11:08 35° SE 16:19:52 10° E daylight
27 May - 18:05:05 10° WSW 18:14:39 56° S 18:24:26 10° E daylight
27 May - 20:08:59 10° W 20:18:38 54° SSW 20:28:22 10° ESE daylight
27 May - 22:13:32 10° W 22:22:04 32° SW 22:30:36 10° SSE daylight
28 May - 00:22:31 10° WSW 00:24:14 11° WSW 00:25:56 10° SW daylight
28 May - 13:41:37 10° SE 13:43:54 11° ESE 13:46:12 10° ESE daylight
28 May - 15:37:42 10° SSW 15:46:03 33° SE 15:54:35 10° E daylight
28 May - 17:39:57 10° WSW 17:49:27 55° SSE 17:59:13 10° E daylight
28 May - 19:43:48 10° W 19:53:27 55° SSW 20:03:13 10° ESE daylight
28 May - 21:48:17 10° W 21:56:58 34° SW 22:05:39 10° SSE daylight
28 May - 23:55:59 10° WSW 23:59:14 12° WSW 00:02:30 10° SW daylight
29 May - 15:12:48 10° SSW 15:20:56 31° SE 15:29:18 10° E daylight
29 May - 17:14:51 10° WSW 17:24:17 54° SSE 17:34:00 10° E daylight
29 May - 19:18:37 10° W 19:28:16 56° S 19:38:05 10° ESE daylight
29 May - 21:23:02 10° W 21:31:50 36° SSW 21:40:41 10° SSE daylight
29 May - 23:30:01 10° W 23:34:13 13° SW 23:38:26 10° SSW daylight
30 May - 14:47:57 10° SSW 14:55:52 30° SE 15:04:00 10° E daylight
30 May - 16:49:45 10° SW 16:59:07 52° SSE 17:08:46 10° E daylight
30 May - 18:53:27 10° W 19:03:05 57° S 19:12:54 10° ESE daylight
30 May - 20:57:47 10° W 21:06:43 38° SSW 21:15:42 10° SSE daylight
30 May - 23:04:16 10° W 23:09:12 15° SW 23:14:09 10° SSW daylight
31 May - 14:23:06 10° SSW 14:30:47 28° SE 14:38:41 10° E daylight
31 May - 16:24:39 10° SW 16:33:57 51° SSE 16:43:32 10° E daylight
31 May - 18:28:17 10° W 18:37:54 57° S 18:47:44 10° ESE daylight
31 May - 20:32:34 10° W 20:41:35 39° SSW 20:50:41 10° SSE daylight
31 May - 22:38:38 10° W 22:44:10 16° SW 22:49:43 10° SSW daylight
01 Jun - 13:58:17 10° S 14:05:43 26° SE 14:13:21 10° E daylight
01 Jun - 15:59:35 10° SW 16:08:48 50° SSE 16:18:19 10° E daylight
01 Jun - 18:03:06 10° W 18:12:43 58° S 18:22:33 10° ESE daylight
01 Jun - 20:07:21 10° W 20:16:27 41° SSW 20:25:39 10° SE daylight
01 Jun - 22:13:07 10° W 22:19:08 18° SW 22:25:12 10° SSW daylight
02 Jun - 13:33:31 10° S 13:40:40 24° SE 13:48:00 10° E daylight
02 Jun - 15:34:31 10° SW 15:43:39 48° SSE 15:53:05 10° E daylight
02 Jun - 17:37:57 10° WSW 17:47:31 58° S 17:57:21 10° ESE daylight
02 Jun - 19:42:09 10° W 19:51:18 43° SSW 20:00:36 10° SE daylight
02 Jun - 21:47:39 10° W 21:54:06 19° SW 22:00:34 10° S daylight
